When you browse on this site, cookies collect data to enhance your experience and personalize the content and advertising you see.
Visit our Privacy Policy to learn more. By continuing to use the site, you agree to this use of cookies and data.
  • In Romania
  • List of Countries
  • For 7 days
  • Water Temperature
  • Weather Map
  • Weather Widgets
  • user-avatar
    Login

    Hourly Weather Ischgl

    Today, 6 June, Saturday

    Time Temperature Precipitation Wind Pressure Humidity
    00:00 +1°C° 0 mm 1 mps 566 mmHg 92%
    01:00 -1°C° 0 mm 2 mps 566 mmHg 91%
    02:00 -1°C° 0 mm 2 mps 566 mmHg 90%
    03:00 -1°C° 0 mm 2 mps 566 mmHg 90%
    04:00 -1°C° 0 mm 2 mps 566 mmHg 90%
    05:00 +2°C° 0 mm 2 mps 567 mmHg 87%
    06:00 +3°C° 0 mm 2 mps 568 mmHg 84%
    07:00 +5°C° 0 mm 2 mps 569 mmHg 81%
    08:00 +6°C° 0.1 mm 2 mps 569 mmHg 78%
    09:00 +7°C° 0.1 mm 2 mps 570 mmHg 75%
    10:00 +8°C° 0.1 mm 2 mps 570 mmHg 71%
    11:00 +8°C° 0.6 mm 2 mps 571 mmHg 73%
    12:00 +9°C° 0.6 mm 2 mps 571 mmHg 74%
    13:00 +9°C° 0.6 mm 2 mps 571 mmHg 75%
    14:00 +8°C° 1.1 mm 2 mps 570 mmHg 79%
    15:00 +8°C° 1.1 mm 2 mps 570 mmHg 83%
    16:00 +7°C° 1.1 mm 2 mps 570 mmHg 87%
    17:00 +8°C° 0.9 mm 1 mps 570 mmHg 89%
    18:00 +7°C° 0.9 mm 1 mps 569 mmHg 91%
    19:00 +6°C° 0.9 mm 1 mps 569 mmHg 94%
    20:00 +6°C° 0.3 mm 1 mps 569 mmHg 95%
    21:00 +5°C° 0.3 mm 1 mps 569 mmHg 96%
    22:00 +5°C° 0.3 mm 1 mps 569 mmHg 97%
    23:00 +4°C° 0.1 mm 1 mps 569 mmHg 97%

    Tomorrow, 7 June, Sunday

    Time Temperature Precipitation Wind Pressure Humidity
    00:00 +4°C° 0.1 mm 1 mps 568 mmHg 97%
    01:00 +4°C° 0.1 mm 1 mps 568 mmHg 96%
    02:00 +3°C° 0 mm 1 mps 568 mmHg 96%
    03:00 +3°C° 0 mm 1 mps 568 mmHg 96%
    04:00 +3°C° 0 mm 1 mps 567 mmHg 96%
    05:00 +4°C° 0.1 mm 1 mps 568 mmHg 95%
    06:00 +5°C° 0.1 mm 1 mps 568 mmHg 93%
    07:00 +5°C° 0.1 mm 1 mps 569 mmHg 92%
    08:00 +6°C° 0.5 mm 1 mps 569 mmHg 91%
    09:00 +6°C° 0.5 mm 1 mps 570 mmHg 90%
    10:00 +6°C° 0.5 mm 1 mps 570 mmHg 90%
    11:00 +5°C° 2.8 mm 1 mps 569 mmHg 93%
    12:00 +4°C° 2.8 mm 1 mps 569 mmHg 95%
    13:00 +2°C° 2.8 mm 1 mps 568 mmHg 98%
    14:00 +2°C° 3.2 mm 1 mps 568 mmHg 98%
    15:00 +1°C° 3.2 mm 1 mps 568 mmHg 98%
    16:00 +1°C° 3.2 mm 1 mps 568 mmHg 99%
    17:00 +1°C° 1.7 mm 1 mps 568 mmHg 98%
    18:00 +1°C° 1.7 mm 1 mps 568 mmHg 98%
    19:00 +1°C° 1.7 mm 1 mps 568 mmHg 98%
    20:00 +1°C° 0.1 mm 1 mps 568 mmHg 98%
    21:00 0°C° 0.1 mm 1 mps 568 mmHg 97%
    22:00 -1°C° 0.1 mm 0 mps 568 mmHg 97%
    23:00 -1°C° 0 mm 0 mps 568 mmHg 96%

    Day after tomorrow, 8 June, Monday

    Time Temperature Precipitation Wind Pressure Humidity
    00:00 -1°C° 0 mm 0 mps 568 mmHg 95%
    01:00 -2°C° 0 mm 0 mps 568 mmHg 94%
    02:00 -2°C° 0 mm 0 mps 568 mmHg 94%
    03:00 -2°C° 0 mm 0 mps 567 mmHg 94%
    04:00 -2°C° 0 mm 0 mps 567 mmHg 95%
    05:00 -1°C° 0 mm 0 mps 568 mmHg 95%
    06:00 +1°C° 0 mm 1 mps 568 mmHg 96%
    07:00 +2°C° 0 mm 1 mps 569 mmHg 96%
    08:00 +2°C° 0 mm 1 mps 569 mmHg 95%
    09:00 +3°C° 0 mm 1 mps 570 mmHg 95%
    10:00 +3°C° 0 mm 1 mps 570 mmHg 94%
    11:00 +4°C° 0.1 mm 1 mps 570 mmHg 92%
    12:00 +5°C° 0.1 mm 1 mps 571 mmHg 91%
    13:00 +5°C° 0.1 mm 1 mps 571 mmHg 90%
    14:00 +6°C° 0.1 mm 1 mps 571 mmHg 90%
    15:00 +6°C° 0.1 mm 1 mps 571 mmHg 90%
    16:00 +5°C° 0.1 mm 2 mps 571 mmHg 90%
    17:00 +5°C° 0.2 mm 2 mps 571 mmHg 92%
    18:00 +4°C° 0.2 mm 2 mps 571 mmHg 94%
    19:00 +5°C° 0.2 mm 1 mps 570 mmHg 96%
    20:00 +4°C° 0.6 mm 1 mps 570 mmHg 97%
    21:00 +4°C° 0.6 mm 1 mps 571 mmHg 98%
    22:00 +3°C° 0.6 mm 1 mps 571 mmHg 99%
    23:00 +3°C° 1.3 mm 1 mps 570 mmHg 99%

    9 June, Tuesday

    Time Temperature Precipitation Wind Pressure Humidity
    00:00 +3°C° 1.3 mm 1 mps 570 mmHg 99%
    01:00 +2°C° 1.3 mm 0 mps 570 mmHg 99%
    02:00 +2°C° 0.8 mm 0 mps 570 mmHg 99%
    03:00 +2°C° 0.8 mm 0 mps 570 mmHg 98%
    04:00 +2°C° 0.8 mm 0 mps 570 mmHg 98%
    05:00 +2°C° 0.3 mm 0 mps 570 mmHg 97%
    06:00 +2°C° 0.3 mm 0 mps 570 mmHg 96%
    07:00 +3°C° 0.3 mm 0 mps 571 mmHg 95%
    08:00 +3°C° 0.1 mm 0 mps 571 mmHg 95%
    09:00 +4°C° 0.1 mm 0 mps 571 mmHg 94%
    10:00 +4°C° 0.1 mm 0 mps 572 mmHg 94%
    11:00 +5°C° 0.2 mm 1 mps 572 mmHg 93%
    12:00 +6°C° 0.2 mm 1 mps 572 mmHg 93%
    13:00 +6°C° 0.2 mm 1 mps 572 mmHg 93%
    14:00 +5°C° 1 mm 1 mps 572 mmHg 94%
    15:00 +5°C° 1 mm 1 mps 572 mmHg 96%
    16:00 +5°C° 1 mm 1 mps 571 mmHg 97%
    17:00 +4°C° 1.7 mm 1 mps 571 mmHg 97%
    18:00 +4°C° 1.7 mm 1 mps 571 mmHg 97%
    19:00 +3°C° 1.7 mm 1 mps 571 mmHg 97%
    20:00 +3°C° 0.4 mm 1 mps 571 mmHg 97%
    21:00 +3°C° 0.4 mm 1 mps 571 mmHg 96%
    22:00 +3°C° 0.4 mm 1 mps 572 mmHg 96%
    23:00 +2°C° 0 mm 0 mps 571 mmHg 95%

    10 June, Wednesday

    Time Temperature Precipitation Wind Pressure Humidity
    00:00 +1°C° 0 mm 0 mps 571 mmHg 95%
    01:00 +1°C° 0 mm 0 mps 571 mmHg 94%
    02:00 +1°C° 0 mm 0 mps 570 mmHg 94%
    03:00 0°C° 0 mm 0 mps 570 mmHg 94%
    04:00 0°C° 0 mm 0 mps 569 mmHg 94%
    05:00 +1°C° 0.1 mm 0 mps 570 mmHg 94%
    06:00 +2°C° 0.1 mm 0 mps 571 mmHg 93%
    07:00 +3°C° 0.1 mm 0 mps 572 mmHg 92%
    08:00 +3°C° 1 mm 0 mps 572 mmHg 93%
    09:00 +3°C° 1 mm 0 mps 572 mmHg 95%
    10:00 +3°C° 1 mm 0 mps 572 mmHg 96%
    11:00 +3°C° 1 mm 0 mps 572 mmHg 95%
    12:00 +3°C° 1 mm 0 mps 572 mmHg 95%
    13:00 +3°C° 1 mm 0 mps 572 mmHg 95%
    14:00 +4°C° 0.1 mm 1 mps 572 mmHg 95%
    15:00 +4°C° 0.1 mm 1 mps 572 mmHg 95%
    16:00 +5°C° 0.1 mm 1 mps 572 mmHg 95%
    17:00 +5°C° 0.1 mm 1 mps 572 mmHg 95%
    18:00 +4°C° 0.1 mm 1 mps 572 mmHg 96%
    19:00 +4°C° 0.1 mm 1 mps 572 mmHg 97%
    20:00 +4°C° 0.1 mm 1 mps 573 mmHg 97%
    21:00 +4°C° 0.1 mm 1 mps 573 mmHg 97%
    22:00 +3°C° 0.1 mm 1 mps 573 mmHg 98%
    23:00 +3°C° 0 mm 1 mps 573 mmHg 98%

    11 June, Thursday

    Time Temperature Precipitation Wind Pressure Humidity
    00:00 +3°C° 0 mm 1 mps 572 mmHg 98%
    01:00 +2°C° 0 mm 0 mps 572 mmHg 98%
    02:00 +2°C° 0 mm 0 mps 572 mmHg 98%
    03:00 +2°C° 0 mm 0 mps 572 mmHg 97%
    04:00 +2°C° 0 mm 0 mps 572 mmHg 97%
    05:00 +2°C° 0.2 mm 0 mps 572 mmHg 96%
    06:00 +4°C° 0.2 mm 1 mps 572 mmHg 95%
    07:00 +5°C° 0.2 mm 1 mps 573 mmHg 94%
    08:00 +5°C° 0.7 mm 1 mps 573 mmHg 94%
    09:00 +5°C° 0.7 mm 1 mps 573 mmHg 94%
    10:00 +4°C° 0.7 mm 2 mps 573 mmHg 94%
    11:00 +4°C° 0.3 mm 2 mps 573 mmHg 95%
    12:00 +4°C° 0.3 mm 2 mps 573 mmHg 95%
    13:00 +4°C° 0.3 mm 2 mps 572 mmHg 96%
    14:00 +4°C° 0.1 mm 2 mps 572 mmHg 96%
    15:00 +4°C° 0.1 mm 2 mps 572 mmHg 96%
    16:00 +4°C° 0.1 mm 2 mps 572 mmHg 96%
    17:00 +4°C° 0.1 mm 2 mps 572 mmHg 96%
    18:00 +4°C° 0.1 mm 1 mps 572 mmHg 97%
    19:00 +4°C° 0.1 mm 1 mps 572 mmHg 97%
    20:00 +4°C° 0.1 mm 1 mps 572 mmHg 97%
    21:00 +4°C° 0.1 mm 1 mps 572 mmHg 98%
    22:00 +4°C° 0.1 mm 1 mps 572 mmHg 98%
    23:00 +2°C° 0 mm 0 mps 571 mmHg 98%
    Show more